This is the latest recevied weather packets stored in our database for station/object NI4CE-10. If no packets are shown the sender has not sent any weather packets the latest 10 day(s).
| Time | Temp. | Humidity | Pressure | Rain* | Wind** | Luminosity | Snow |
|---|---|---|---|---|---|---|---|
| 1788125293 | 25° C | 100% | 1018 hPa | 1.78 mm | - | - | - |
| 1788124992 | 25° C | 100% | 1018 hPa | 2.03 mm | - | - | - |
| 1788124693 | 25° C | 100% | 1018.2 hPa | 3.05 mm | - | - | - |
| 1788124393 | 25° C | 100% | 1018.2 hPa | 4.57 mm | - | - | - |
| 1788124093 | 25° C | 100% | 1018.2 hPa | 5.33 mm | - | - | - |
| 1788123793 | 25° C | 100% | 1018.3 hPa | 7.37 mm | - | - | - |
| 1788123493 | 25° C | 100% | 1018.2 hPa | 11.68 mm | - | - | - |
| 1788123193 | 25° C | 100% | 1018.2 hPa | 15.49 mm | - | - | - |
| 1788122893 | 25° C | 100% | 1018.2 hPa | 17.02 mm | - | - | - |
| 1788122593 | 25° C | 100% | 1018 hPa | 18.03 mm | - | - | - |
| 1788122293 | 25° C | 100% | 1017.8 hPa | 18.03 mm | - | - | - |
| 1788121993 | 25° C | 100% | 1017.8 hPa | 17.78 mm | - | - | - |
| 1788121851 | 24.44° C | 100% | 1018 hPa | 17.78 mm | - | - | - |
| 1788121693 | 24.44° C | 100% | 1018 hPa | 17.78 mm | - | - | - |
| 1788121393 | 24.44° C | 100% | 1018 hPa | 17.27 mm | - | - | - |
| 1788121270 | 24.44° C | 100% | 1018.1 hPa | 18.03 mm | - | - | - |
| 1788121093 | 24.44° C | 100% | 1018.1 hPa | 18.03 mm | - | - | - |
| 1788120793 | 24.44° C | 100% | 1018.4 hPa | 16.76 mm | - | - | - |
| 1788120493 | 23.89° C | 100% | 1018.8 hPa | 15.75 mm | - | - | - |
| 1788120193 | 23.33° C | 100% | 1019 hPa | 13.72 mm | - | - | - |
| 1788119893 | 23.33° C | 100% | 1019 hPa | 9.14 mm | - | - | - |
| 1788119593 | 23.89° C | 100% | 1018.8 hPa | 5.33 mm | - | - | - |
| 1788119415 | 25° C | 100% | 1018.9 hPa | 3.56 mm | - | - | - |
| 1788119293 | 25° C | 100% | 1018.9 hPa | 3.56 mm | - | - | - |
| 1788118993 | 25.56° C | 100% | 1018.7 hPa | 2.29 mm | - | - | - |
* Rain latest hour (hover to see other rain measurements)
** Current wind speed in m/s (hover to see current wind gust speed)